Location: Bessat
(45.8735°N, 1.9924°E)
Time: 20:42:52
(UTC+00:00)

Cosmos 1242 Rocket - Pass Details

Date: 11 May 2021
Orbit: 446 x 484 km, 81.2° (Epoch: 21 June)

Event Time Altitude Azimuth Distance (km) Brightness Sun altitude
Rises 20:24:08 0° 195° (SSW) 2,512 5.9 -11.1°
Reaches altitude 10° 20:26:14 10° 198° (SSW) 1,633 5.0 -11.4°
Maximum altitude 20:29:48 69° 281° (W) 507 2.8 -11.9°
Drops below altitude 10° 20:33:20 10° 6° (N) 1,625 5.7 -12.3°
Sets 20:35:26 0° 9° (N) 2,499 6.7 -12.6°
